Regional Weather Roundup
Issued by NWS Bismarck, ND

Home | Current Version | Previous Version | Text Only | Print | Product List | Glossary On
Versions: 1 2 3 4 5 6 7 8 9 10 11 12 13 14 15 16 17 18 19 20 21 22 23 24 25 26 27 28 29 30 31 32 33 34 35 36 37 38 39 40 41 42 43 44 45 46 47 48 49 50
000
ASUS43 KBIS 311401
RWRBIS

NWR BROADCAST TEXT
NATIONAL WEATHER SERVICE BISMARCK ND
800 AM CST SAT JAN 31 2015

NOTE: "FAIR" INDICATES FEW OR NO CLOUDS BELOW 12,000 FEET WITH NO
SIGNIFICANT WEATHER AND/OR OBSTRUCTIONS TO VISIBILITY.


CITY           SKY/WX    TMP DP  RH WIND       PRES   REMARKS
WILLISTON      CLOUDY    15  11  83 E18G25    30.23R WCI  -2
MINOT          CLOUDY     8  -1  66 NE14      30.32R WCI  -8
MINOT AFB      CLOUDY     8   3  81 E13       30.33R WCI  -8
BISMARCK       CLOUDY    17  14  88 NE16G23   30.25R WCI   2
DICKINSON      CLOUDY    20  17  88 E16       30.10S FOG     WCI   6
GARRISON         N/A     10   1  67 E16G25    30.26R WCI  -7
HETTINGER ARPT FOG       21  20  96 E17       30.09S VSB 1/2 WCI   7
JAMESTOWN      FLURRIES  12   7  80 NE15      30.29R WCI  -4
CARRINGTON     CLOUDY     9   7  92 MISG      30.32R
CROSBY         CLOUDY     9   5  85 E18       30.30S WCI -10
HAZEN          CLOUDY    14  10  85 E15G23    30.25R WCI  -1
LINTON         CLOUDY    19  19 100 NE13      30.20S WCI   7
OAKES            N/A     14  12  92 N18G28    30.27R WCI  -3
WATFORD CITY   CLOUDY    18  18 100 E16G23    30.18R WCI   3
$$

CITY           SKY/WX    TMP DP  RH WIND       PRES   REMARKS
GRAND FORKS    MOCLDY     5  -2  72 N16       30.41R WCI -14
GRAND FORKS AF FAIR       4  -3  71 NE18G24   30.40R WCI -16
DEVILS LAKE    MOCLDY     3  -6  66 NE18      30.35R WCI -17
FARGO          CLOUDY    10   2  69 N18       30.33R WCI  -8
GWINNER        CLOUDY    18  12  79 N21G26    30.28R WCI   1
$$

CITY           SKY/WX    TMP DP  RH WIND       PRES   REMARKS
ABERDEEN       CLOUDY    21  16  81 NE18      30.22R WCI   6
MOBRIDGE       CLOUDY    24  21  88 E14       30.15S WCI  12
BUFFALO          N/A     24  23  96 E9        29.94F WCI  14
RAPID CITY     CLOUDY    26  22  84 E7        30.01F WCI  18
GLASGOW        CLOUDY    22  19  89 E25G33    30.09R FOG     WCI   5
SIDNEY         CLOUDY    25  21  86 E12       30.18S WCI  14
WOLF POINT     CLOUDY    23  20  88 E24G31    30.14S WCI   7
GLENDIVE       CLOUDY    23  19  86 E17G23    30.08S WCI   9
MILES CITY     PTCLDY    23  21  92 NE16      29.97S WCI  10
BAKER          FOG       24  23  96 E22G28    30.02S VSB 3/4 WCI   9
$$

CITY           SKY/WX    TMP DP  RH WIND       PRES   REMARKS
BILLINGS       PTCLDY    29  20  69 SW15      29.94R WCI  18
GREAT FALLS    CLOUDY    26  24  92 N13       30.08R WCI  15
$$




USA.gov is the U.S. government's official web portal to all federal, state and local government web resources and services.